STARLINK-35447

Last updated on Wed Dec 31 2025 00:02:06 GMT+0000 (Coordinated Universal Time)

1 66589U 25270B 25364.61234307 .00063651 00000+0 15190-2 0 9994 2 66589 43.0037 89.5624 0002729 277.2440 82.8106 15.40684476 7213
UTC large
Height (km)
Speed (km/s)
/
Latitude / Longitude
Inclination (degrees)
Orbital Period (minutes)
Azimuth
Elevation
Range (km)
Doppler Factor

Next 0 passes for location: London (51.5072 / 0.1276)

Sorry there are no passes over London.